Time,TemperatureF,DewpointF,PressureIn,WindDirection,WindDirectionDegrees,WindSpeedMPH,WindSpeedGustMPH,Humidity,HourlyPrecipIn,Conditions,Clouds,dailyrainin,SoftwareType,DateUTC
2013-10-04 00:00:00,62.5,32.2,29.70,SSE,167,1.0,1.0,32,0.00,,,0.00,Wunderground v.1.15,2013-10-04 06:00:00,
2013-10-04 00:10:00,61.9,32.5,29.71,SSE,167,1.0,1.0,33,0.00,,,0.00,Wunderground v.1.15,2013-10-04 06:10:00,
2013-10-04 00:20:00,61.4,32.8,29.71,SSE,167,0.0,0.0,34,0.00,,,0.00,Wunderground v.1.15,2013-10-04 06:20:00,
2013-10-04 00:30:00,60.9,33.0,29.70,SSE,167,0.0,0.0,35,0.00,,,0.00,Wunderground v.1.15,2013-10-04 06:30:00,
2013-10-04 00:40:00,60.8,33.0,29.70,SSE,167,1.0,1.0,35,0.00,,,0.00,Wunderground v.1.15,2013-10-04 06:40:00,
2013-10-04 00:50:00,60.4,32.6,29.70,SSE,167,0.0,0.0,35,0.00,,,0.00,Wunderground v.1.15,2013-10-04 06:50:00,
2013-10-04 01:00:00,60.3,32.5,29.70,SSE,167,0.0,0.0,35,0.00,,,0.00,Wunderground v.1.15,2013-10-04 07:00:00,
2013-10-04 01:10:00,61.0,32.4,29.70,SSE,167,1.0,7.0,34,0.00,,,0.00,Wunderground v.1.15,2013-10-04 07:10:00,
2013-10-04 01:20:00,61.1,32.5,29.71,SSE,167,1.0,7.0,34,0.00,,,0.00,Wunderground v.1.15,2013-10-04 07:20:00,
2013-10-04 01:30:00,60.5,32.7,29.71,SSE,167,0.0,7.0,35,0.00,,,0.00,Wunderground v.1.15,2013-10-04 07:30:00,
2013-10-04 01:40:00,59.9,32.9,29.71,SSE,167,0.0,7.0,36,0.00,,,0.00,Wunderground v.1.15,2013-10-04 07:40:00,
2013-10-04 01:50:00,59.1,36.0,29.72,SSE,167,0.0,7.0,42,0.00,,,0.00,Wunderground v.1.15,2013-10-04 07:50:00,
2013-10-04 02:00:00,58.0,35.0,29.72,SSE,167,0.0,7.0,42,0.00,,,0.00,Wunderground v.1.15,2013-10-04 08:00:00,
2013-10-04 02:10:00,57.1,35.4,29.72,SSE,167,0.0,7.0,44,0.00,,,0.00,Wunderground v.1.15,2013-10-04 08:10:00,
2013-10-04 02:20:00,56.5,34.8,29.72,SSE,167,0.0,7.0,44,0.00,,,0.00,Wunderground v.1.15,2013-10-04 08:20:00,
2013-10-04 02:30:00,56.2,35.7,29.73,SSE,167,0.0,7.0,46,0.00,,,0.00,Wunderground v.1.15,2013-10-04 08:30:00,
2013-10-04 02:40:00,55.9,36.5,29.73,SSE,167,0.0,7.0,48,0.00,,,0.00,Wunderground v.1.15,2013-10-04 08:40:00,
2013-10-04 02:50:00,56.5,34.3,29.72,SSE,167,0.0,7.0,43,0.00,,,0.00,Wunderground v.1.15,2013-10-04 08:50:00,
2013-10-04 03:00:00,60.0,33.6,29.72,SSE,167,2.0,7.0,37,0.00,,,0.00,Wunderground v.1.15,2013-10-04 09:00:00,
2013-10-04 03:10:00,61.4,33.5,29.72,SSW,210,3.0,7.0,35,0.00,,,0.00,Wunderground v.1.15,2013-10-04 09:10:00,
2013-10-04 03:20:00,61.6,33.7,29.73,SW,227,4.0,7.0,35,0.00,,,0.00,Wunderground v.1.15,2013-10-04 09:20:00,
2013-10-04 03:30:00,61.7,33.7,29.72,SSW,199,4.0,8.0,35,0.00,,,0.00,Wunderground v.1.15,2013-10-04 09:30:00,
2013-10-04 03:40:00,62.1,34.1,29.72,SSW,196,5.0,5.0,35,0.00,,,0.00,Wunderground v.1.15,2013-10-04 09:40:00,
2013-10-04 03:50:00,62.0,34.0,29.73,SW,217,3.0,7.0,35,0.00,,,0.00,Wunderground v.1.15,2013-10-04 09:50:00,
2013-10-04 04:00:00,61.7,34.5,29.73,SSW,204,2.0,2.0,36,0.00,,,0.00,Wunderground v.1.15,2013-10-04 10:00:00,
2013-10-04 04:10:00,61.8,33.8,29.73,SW,227,4.0,7.0,35,0.00,,,0.00,Wunderground v.1.15,2013-10-04 10:10:00,
2013-10-04 04:20:00,61.9,33.9,29.73,SW,230,4.0,7.0,35,0.00,,,0.00,Wunderground v.1.15,2013-10-04 10:20:00,
2013-10-04 04:30:00,59.8,32.1,29.76,WNW,286,5.0,5.0,35,0.00,,,0.00,Wunderground v.1.15,2013-10-04 10:30:00,
2013-10-04 04:40:00,56.1,31.5,29.76,WNW,300,5.0,5.0,39,0.00,,,0.00,Wunderground v.1.15,2013-10-04 10:40:00,
2013-10-04 04:50:00,54.5,31.9,29.77,NW,307,5.0,7.0,42,0.00,,,0.00,Wunderground v.1.15,2013-10-04 10:50:00,
2013-10-04 05:00:00,53.7,31.7,29.77,NW,321,4.0,7.0,43,0.00,,,0.00,Wunderground v.1.15,2013-10-04 11:00:00,
2013-10-04 05:10:00,53.3,31.4,29.78,NW,313,5.0,7.0,43,0.00,,,0.00,Wunderground v.1.15,2013-10-04 11:10:00,
2013-10-04 05:20:00,52.8,31.5,29.78,NW,323,5.0,5.0,44,0.00,,,0.00,Wunderground v.1.15,2013-10-04 11:20:00,
2013-10-04 05:30:00,52.5,31.2,29.79,NNW,327,4.0,4.0,44,0.00,,,0.00,Wunderground v.1.15,2013-10-04 11:30:00,
2013-10-04 05:40:00,52.1,31.4,29.79,NW,320,4.0,4.0,45,0.00,,,0.00,Wunderground v.1.15,2013-10-04 11:40:00,
2013-10-04 05:50:00,51.9,31.2,29.80,NNW,327,6.0,6.0,45,0.00,,,0.00,Wunderground v.1.15,2013-10-04 11:50:00,
2013-10-04 06:00:00,51.6,30.9,29.81,NW,321,4.0,4.0,45,0.00,,,0.00,Wunderground v.1.15,2013-10-04 12:00:00,
2013-10-04 06:10:00,51.4,30.2,29.81,NNW,337,4.0,7.0,44,0.00,,,0.00,Wunderground v.1.15,2013-10-04 12:10:00,
2013-10-04 06:20:00,51.3,30.1,29.81,NNW,338,5.0,5.0,44,0.00,,,0.00,Wunderground v.1.15,2013-10-04 12:20:00,
2013-10-04 06:30:00,51.2,29.4,29.81,NW,311,9.0,9.0,43,0.00,,,0.00,Wunderground v.1.15,2013-10-04 12:30:00,
2013-10-04 06:40:00,50.7,28.4,29.82,NW,320,7.0,7.0,42,0.00,,,0.00,Wunderground v.1.15,2013-10-04 12:40:00,
2013-10-04 06:50:00,50.3,27.5,29.82,NW,321,5.0,11.0,41,0.00,,,0.00,Wunderground v.1.15,2013-10-04 12:50:00,
2013-10-04 07:00:00,50.2,27.4,29.82,NW,320,4.0,4.0,41,0.00,,,0.00,Wunderground v.1.15,2013-10-04 13:00:00,
2013-10-04 07:10:00,50.0,27.8,29.82,NNW,340,2.0,2.0,42,0.00,,,0.00,Wunderground v.1.15,2013-10-04 13:10:00,
2013-10-04 07:20:00,49.9,27.7,29.83,NW,321,2.0,7.0,42,0.00,,,0.00,Wunderground v.1.15,2013-10-04 13:20:00,
2013-10-04 07:30:00,49.8,27.6,29.83,NW,325,3.0,3.0,42,0.00,,,0.00,Wunderground v.1.15,2013-10-04 13:30:00,
2013-10-04 07:40:00,50.2,27.4,29.84,North,350,2.0,7.0,41,0.00,,,0.00,Wunderground v.1.15,2013-10-04 13:40:00,
2013-10-04 07:50:00,50.6,27.1,29.84,North,360,3.0,10.0,40,0.00,,,0.00,Wunderground v.1.15,2013-10-04 13:50:00,
2013-10-04 08:00:00,50.9,26.8,29.85,NW,326,4.0,10.0,39,0.00,,,0.00,Wunderground v.1.15,2013-10-04 14:00:00,
2013-10-04 08:10:00,51.1,26.3,29.85,NNW,337,5.0,8.0,38,0.00,,,0.00,Wunderground v.1.15,2013-10-04 14:10:00,
2013-10-04 08:20:00,51.0,26.9,29.85,NW,325,6.0,6.0,39,0.00,,,0.00,Wunderground v.1.15,2013-10-04 14:20:00,
2013-10-04 08:30:00,51.7,27.5,29.86,NNW,333,4.0,9.0,39,0.00,,,0.00,Wunderground v.1.15,2013-10-04 14:30:00,
2013-10-04 08:40:00,51.9,26.4,29.86,NW,319,7.0,7.0,37,0.00,,,0.00,Wunderground v.1.15,2013-10-04 14:40:00,
2013-10-04 08:50:00,51.8,26.3,29.87,NNW,333,9.0,9.0,37,0.00,,,0.00,Wunderground v.1.15,2013-10-04 14:50:00,
2013-10-04 09:00:00,52.1,26.6,29.87,WNW,288,9.0,9.0,37,0.00,,,0.00,Wunderground v.1.15,2013-10-04 15:00:00,
2013-10-04 09:10:00,52.8,26.6,29.88,NW,323,7.0,7.0,36,0.00,,,0.00,Wunderground v.1.15,2013-10-04 15:10:00,
2013-10-04 09:20:00,53.3,25.6,29.87,NNW,340,8.0,14.0,34,0.00,,,0.00,Wunderground v.1.15,2013-10-04 15:20:00,
2013-10-04 09:30:00,53.8,25.3,29.88,NNW,327,7.0,9.0,33,0.00,,,0.00,Wunderground v.1.15,2013-10-04 15:30:00,
2013-10-04 09:40:00,53.8,23.1,29.88,NW,321,10.0,10.0,30,0.00,,,0.00,Wunderground v.1.15,2013-10-04 15:40:00,
2013-10-04 09:50:00,54.4,22.8,29.88,NNW,335,9.0,9.0,29,0.00,,,0.00,Wunderground v.1.15,2013-10-04 15:50:00,
2013-10-04 10:00:00,55.1,24.2,29.88,NW,315,7.0,7.0,30,0.00,,,0.00,Wunderground v.1.15,2013-10-04 16:00:00,
2013-10-04 10:10:00,56.3,24.4,29.88,NW,325,6.0,7.0,29,0.00,,,0.00,Wunderground v.1.15,2013-10-04 16:10:00,
2013-10-04 10:20:00,56.2,22.6,29.88,NNW,330,8.0,8.0,27,0.00,,,0.00,Wunderground v.1.15,2013-10-04 16:20:00,
2013-10-04 10:30:00,56.6,23.0,29.88,NNW,344,8.0,8.0,27,0.00,,,0.00,Wunderground v.1.15,2013-10-04 16:30:00,
2013-10-04 10:40:00,57.0,23.3,29.89,WNW,296,8.0,8.0,27,0.00,,,0.00,Wunderground v.1.15,2013-10-04 16:40:00,
2013-10-04 10:50:00,57.6,22.0,29.89,NNW,328,8.0,8.0,25,0.00,,,0.00,Wunderground v.1.15,2013-10-04 16:50:00,
2013-10-04 11:00:00,57.7,21.1,29.89,North,11,8.0,9.0,24,0.00,,,0.00,Wunderground v.1.15,2013-10-04 17:00:00,
2013-10-04 11:10:00,57.7,20.1,29.89,NNW,329,8.0,8.0,23,0.00,,,0.00,Wunderground v.1.15,2013-10-04 17:10:00,
2013-10-04 11:20:00,59.1,21.3,29.89,West,278,6.0,6.0,23,0.00,,,0.00,Wunderground v.1.15,2013-10-04 17:20:00,
2013-10-04 11:30:00,60.0,21.0,29.89,NNW,330,5.0,7.0,22,0.00,,,0.00,Wunderground v.1.15,2013-10-04 17:30:00,
2013-10-04 12:00:00,60.3,21.2,29.91,NW,313,6.0,6.0,22,0.00,,,0.00,Wunderground v.1.15,2013-10-04 18:00:00,
2013-10-04 12:10:00,60.3,20.2,29.91,NNW,327,6.0,6.0,21,0.00,,,0.00,Wunderground v.1.15,2013-10-04 18:10:00,
2013-10-04 12:20:00,60.6,20.4,29.91,NW,306,7.0,10.0,21,0.00,,,0.00,Wunderground v.1.15,2013-10-04 18:20:00,
2013-10-04 12:30:00,61.1,19.7,29.91,North,350,7.0,7.0,20,0.00,,,0.00,Wunderground v.1.15,2013-10-04 18:30:00,
2013-10-04 12:40:00,61.2,19.8,29.91,NNW,330,7.0,7.0,20,0.00,,,0.00,Wunderground v.1.15,2013-10-04 18:40:00,
2013-10-04 12:50:00,62.3,20.7,29.91,WNW,299,5.0,8.0,20,0.00,,,0.00,Wunderground v.1.15,2013-10-04 18:50:00,
2013-10-04 13:00:00,61.8,20.3,29.90,NW,304,7.0,7.0,20,0.00,,,0.00,Wunderground v.1.15,2013-10-04 19:00:00,
2013-10-04 13:10:00,62.3,20.7,29.89,NW,309,5.0,8.0,20,0.00,,,0.00,Wunderground v.1.15,2013-10-04 19:10:00,
2013-10-04 13:20:00,62.9,22.3,29.89,NW,326,6.0,7.0,21,0.00,,,0.00,Wunderground v.1.15,2013-10-04 19:20:00,
2013-10-04 13:30:00,64.4,21.2,29.89,NW,313,3.0,8.0,19,0.00,,,0.00,Wunderground v.1.15,2013-10-04 19:30:00,
2013-10-04 13:40:00,63.4,21.6,29.89,NNW,330,6.0,7.0,20,0.00,,,0.00,Wunderground v.1.15,2013-10-04 19:40:00,
2013-10-04 13:50:00,63.7,18.0,29.88,NNW,332,7.0,7.0,17,0.00,,,0.00,Wunderground v.1.15,2013-10-04 19:50:00,
2013-10-04 14:00:00,63.3,17.7,29.88,NNW,336,7.0,7.0,17,0.00,,,0.00,Wunderground v.1.15,2013-10-04 20:00:00,
2013-10-04 14:10:00,62.8,15.9,29.88,NW,315,9.0,13.0,16,0.00,,,0.00,Wunderground v.1.15,2013-10-04 20:10:00,
2013-10-04 14:20:00,63.4,14.9,29.88,NW,316,8.0,9.0,15,0.00,,,0.00,Wunderground v.1.15,2013-10-04 20:20:00,
2013-10-04 14:30:00,63.0,14.6,29.88,North,5,9.0,9.0,15,0.00,,,0.00,Wunderground v.1.15,2013-10-04 20:30:00,
2013-10-04 14:40:00,63.4,14.9,29.88,NW,309,8.0,8.0,15,0.00,,,0.00,Wunderground v.1.15,2013-10-04 20:40:00,
2013-10-04 14:50:00,63.3,14.8,29.89,NW,323,7.0,7.0,15,0.00,,,0.00,Wunderground v.1.15,2013-10-04 20:50:00,
2013-10-04 15:00:00,63.4,13.3,29.89,NNW,336,8.0,8.0,14,0.00,,,0.00,Wunderground v.1.15,2013-10-04 21:00:00,
2013-10-04 15:10:00,62.8,12.8,29.89,North,5,9.0,9.0,14,0.00,,,0.00,Wunderground v.1.15,2013-10-04 21:10:00,
2013-10-04 15:20:00,62.9,12.9,29.90,NW,319,10.0,11.0,14,0.00,,,0.00,Wunderground v.1.15,2013-10-04 21:20:00,
2013-10-04 15:30:00,63.3,14.8,29.89,NNW,328,8.0,10.0,15,0.00,,,0.00,Wunderground v.1.15,2013-10-04 21:30:00,
2013-10-04 15:40:00,63.5,15.0,29.90,NW,309,8.0,14.0,15,0.00,,,0.00,Wunderground v.1.15,2013-10-04 21:40:00,
2013-10-04 15:50:00,62.7,14.3,29.90,NW,314,10.0,10.0,15,0.00,,,0.00,Wunderground v.1.15,2013-10-04 21:50:00,
2013-10-04 16:00:00,63.1,13.1,29.89,NW,315,9.0,16.0,14,0.00,,,0.00,Wunderground v.1.15,2013-10-04 22:00:00,
2013-10-04 16:10:00,62.9,11.2,29.89,NW,304,11.0,17.0,13,0.00,,,0.00,Wunderground v.1.15,2013-10-04 22:10:00,
2013-10-04 16:20:00,62.8,11.1,29.89,NW,319,11.0,11.0,13,0.00,,,0.00,Wunderground v.1.15,2013-10-04 22:20:00,
2013-10-04 16:30:00,62.7,12.7,29.89,NW,319,10.0,10.0,14,0.00,,,0.00,Wunderground v.1.15,2013-10-04 22:30:00,
2013-10-04 16:40:00,62.7,12.7,29.90,NW,315,9.0,15.0,14,0.00,,,0.00,Wunderground v.1.15,2013-10-04 22:40:00,
2013-10-04 16:50:00,61.6,11.9,29.90,NNW,341,12.0,12.0,14,0.00,,,0.00,Wunderground v.1.15,2013-10-04 22:50:00,
2013-10-04 17:00:00,61.4,13.3,29.91,NNW,336,11.0,11.0,15,0.00,,,0.00,Wunderground v.1.15,2013-10-04 23:00:00,
2013-10-04 17:10:00,61.1,11.5,29.91,NNW,340,10.0,10.0,14,0.00,,,0.00,Wunderground v.1.15,2013-10-04 23:10:00,
2013-10-04 17:20:00,61.3,11.6,29.92,NNW,333,8.0,8.0,14,0.00,,,0.00,Wunderground v.1.15,2013-10-04 23:20:00,
2013-10-04 17:30:00,61.4,11.7,29.93,NW,325,7.0,7.0,14,0.00,,,0.00,Wunderground v.1.15,2013-10-04 23:30:00,
2013-10-04 17:40:00,60.5,11.0,29.93,NW,304,10.0,10.0,14,0.00,,,0.00,Wunderground v.1.15,2013-10-04 23:40:00,
2013-10-04 17:50:00,59.8,10.4,29.93,NW,320,11.0,11.0,14,0.00,,,0.00,Wunderground v.1.15,2013-10-04 23:50:00,
2013-10-04 18:00:00,59.6,10.3,29.93,NW,313,11.0,11.0,14,0.00,,,0.00,Wunderground v.1.15,2013-10-05 00:00:00,
2013-10-04 18:10:00,59.2,11.5,29.94,NW,319,10.0,18.0,15,0.00,,,0.00,Wunderground v.1.15,2013-10-05 00:10:00,
2013-10-04 18:20:00,59.0,11.3,29.94,NNW,336,10.0,10.0,15,0.00,,,0.00,Wunderground v.1.15,2013-10-05 00:20:00,
2013-10-04 18:30:00,58.6,11.0,29.95,North,360,8.0,8.0,15,0.00,,,0.00,Wunderground v.1.15,2013-10-05 00:30:00,
2013-10-04 18:40:00,58.3,9.2,29.95,North,360,5.0,5.0,14,0.00,,,0.00,Wunderground v.1.15,2013-10-05 00:40:00,
2013-10-04 18:50:00,57.7,10.3,29.95,NNW,327,4.0,7.0,15,0.00,,,0.00,Wunderground v.1.15,2013-10-05 00:50:00,
2013-10-04 19:00:00,57.3,10.0,29.95,North,355,5.0,5.0,15,0.00,,,0.00,Wunderground v.1.15,2013-10-05 01:00:00,
2013-10-04 19:10:00,57.1,8.3,29.96,NW,309,6.0,7.0,14,0.00,,,0.00,Wunderground v.1.15,2013-10-05 01:10:00,
2013-10-04 19:20:00,56.8,9.6,29.97,NW,325,8.0,8.0,15,0.00,,,0.00,Wunderground v.1.15,2013-10-05 01:20:00,
2013-10-04 19:30:00,56.5,9.3,29.97,NW,316,4.0,4.0,15,0.00,,,0.00,Wunderground v.1.15,2013-10-05 01:30:00,
2013-10-04 19:40:00,56.1,10.4,29.98,NNW,331,4.0,4.0,16,0.00,,,0.00,Wunderground v.1.15,2013-10-05 01:40:00,
2013-10-04 19:50:00,55.9,10.3,29.98,NW,321,4.0,7.0,16,0.00,,,0.00,Wunderground v.1.15,2013-10-05 01:50:00,
2013-10-04 20:00:00,55.5,11.3,29.99,NW,315,4.0,8.0,17,0.00,,,0.00,Wunderground v.1.15,2013-10-05 02:00:00,
2013-10-04 20:10:00,55.3,12.4,29.99,NW,317,6.0,6.0,18,0.00,,,0.00,Wunderground v.1.15,2013-10-05 02:10:00,
2013-10-04 20:20:00,54.9,12.1,30.00,NW,317,4.0,8.0,18,0.00,,,0.00,Wunderground v.1.15,2013-10-05 02:20:00,
2013-10-04 20:30:00,54.5,13.0,30.01,NW,322,4.0,7.0,19,0.00,,,0.00,Wunderground v.1.15,2013-10-05 02:30:00,
2013-10-04 20:40:00,54.3,12.8,30.01,NW,317,4.0,4.0,19,0.00,,,0.00,Wunderground v.1.15,2013-10-05 02:40:00,
2013-10-04 20:50:00,53.9,13.7,30.01,NNW,331,3.0,3.0,20,0.00,,,0.00,Wunderground v.1.15,2013-10-05 02:50:00,
2013-10-04 21:00:00,53.6,12.3,30.01,North,355,5.0,8.0,19,0.00,,,0.00,Wunderground v.1.15,2013-10-05 03:00:00,
2013-10-04 21:10:00,53.7,12.4,30.02,NW,319,8.0,8.0,19,0.00,,,0.00,Wunderground v.1.15,2013-10-05 03:10:00,
2013-10-04 21:20:00,53.6,12.3,30.03,NW,309,8.0,8.0,19,0.00,,,0.00,Wunderground v.1.15,2013-10-05 03:20:00,
2013-10-04 21:30:00,53.5,13.4,30.03,NNW,336,6.0,7.0,20,0.00,,,0.00,Wunderground v.1.15,2013-10-05 03:30:00,
2013-10-04 21:40:00,53.6,12.3,30.04,North,350,7.0,10.0,19,0.00,,,0.00,Wunderground v.1.15,2013-10-05 03:40:00,
2013-10-04 21:50:00,53.5,13.4,30.04,WNW,300,9.0,9.0,20,0.00,,,0.00,Wunderground v.1.15,2013-10-05 03:50:00,
2013-10-04 22:00:00,53.2,13.1,30.04,NW,326,8.0,8.0,20,0.00,,,0.00,Wunderground v.1.15,2013-10-05 04:00:00,
2013-10-04 22:10:00,52.8,14.9,30.05,WNW,302,10.0,10.0,22,0.00,,,0.00,Wunderground v.1.15,2013-10-05 04:10:00,
2013-10-04 22:20:00,52.4,15.6,30.06,WNW,297,10.0,10.0,23,0.00,,,0.00,Wunderground v.1.15,2013-10-05 04:20:00,
2013-10-04 22:30:00,52.2,16.4,30.07,NW,307,10.0,10.0,24,0.00,,,0.00,Wunderground v.1.15,2013-10-05 04:30:00,
2013-10-04 22:40:00,52.0,16.3,30.07,NW,325,10.0,10.0,24,0.00,,,0.00,Wunderground v.1.15,2013-10-05 04:40:00,
2013-10-04 22:50:00,51.8,17.0,30.08,NNW,338,7.0,7.0,25,0.00,,,0.00,Wunderground v.1.15,2013-10-05 04:50:00,
2013-10-04 23:00:00,51.7,17.0,30.08,NNW,327,5.0,5.0,25,0.00,,,0.00,Wunderground v.1.15,2013-10-05 05:00:00,
2013-10-04 23:10:00,51.5,17.7,30.08,NNW,328,5.0,5.0,26,0.00,,,0.00,Wunderground v.1.15,2013-10-05 05:10:00,
2013-10-04 23:20:00,51.4,18.5,30.09,NW,326,7.0,7.0,27,0.00,,,0.00,Wunderground v.1.15,2013-10-05 05:20:00,
2013-10-04 23:30:00,51.3,18.4,30.09,NW,318,6.0,6.0,27,0.00,,,0.00,Wunderground v.1.15,2013-10-05 05:30:00,
2013-10-04 23:40:00,51.3,18.4,30.10,NNW,342,6.0,6.0,27,0.00,,,0.00,Wunderground v.1.15,2013-10-05 05:40:00,
2013-10-04 23:50:00,51.4,17.6,30.10,NW,320,6.0,6.0,26,0.00,,,0.00,Wunderground v.1.15,2013-10-05 05:50:00,